Location: Newark
(22.3060°N, 114.2134°E)
Time: 22:30:24
(UTC+00:00)

Vanguard 2 - Pass Details

Date: 04 August 2021
Orbit: 553 x 2937 km, 32.9° (Epoch: 26 September)

Event Time Altitude Azimuth Distance (km) Brightness Sun altitude
Rises 23:28:00 0° 301° (WNW) 2,931 10.1 19.6°
Reaches altitude 10° 23:30:05 10° 309° (NW) 2,163 9.5 20.1°
Maximum altitude 23:34:49 44° 22° (NNE) 1,232 9.2 21.1°
Drops below altitude 10° 23:42:06 10° 92° (E) 3,323 12.6 22.8°
Sets 23:46:03 0° 98° (E) 4,716 12.8 23.7°
